sat.trackr.live / text

‹ back to catalog

STARLINK-36787

NORAD 68094 · 2026-042AB

PAYLOAD ACTIVE UNKNOWN

§ Identity

Operator
Country
US
Launch date
2026-03-04
Launch site
AFETR
Launch vehicle
Mass (kg)
RCS (m²)

Purposes: comms

External: N2YO · Heavens-Above · Gunter

§ Orbital elements

Epoch: 2026-05-24T19:37:30.793728Z

Period
93.85 min
Inclination
53.1576°
Eccentricity
0.0001212
Mean motion
15.34381490 rev/d
Perigee alt
461.9 km
Apogee alt
463.6 km
Semi-major
6,840.9 km
B*
4.7932e-4
RAAN
184.1910°
Arg perigee
87.6507°
Mean anomaly
272.4635°
Rev number
1,396

§ Raw data

STARLINK-367871 68094U 26042AB  26144.81771752  .00015843  00000+0  47932-3 0  99942 68094  53.1576 184.1910 0001212  87.6507 272.4635 15.34381490 13965

JSON: /api/v1/satellites/68094 · /tle

For live sub-satellite position, see the globe view (requires WebGL).

§ Visibility from observer

Set your observer location to see the next 7 days of passes ≥ 10°. The values pass through the URL so the page stays shareable.

No JS? Fill the form by hand. The geolocation button needs JavaScript.